[[{"header":{"parameterUnit":"m.s-1","parameterCategory":1,"la1":30.2991,"la2":30.254,"lo1":-89.0895,"lo2":-89.0444,"dy":0.0017,"dx":0.0017,"nx":28,"ny":28,"refTime":"2025-05-29T21:00:00:Z","depth":0,"parameterNumber":2,"parameterNumberName":"U-component_of_WINDS"},"data":[0,0,0,0,0,0,0,0,0,0,0,0,0,0,0,0,0,0,0,0,0,0,0,0,0,0,0,0,0,0,0,0,0,0,0,0,0,0,0,0,0,0,0,0,0,0,0,0,0,0,0,0,0,0,0,0,0,0,-1.8485,-1.8485,0,-1.8485,-1.8485,-1.8485,-1.8449,-1.8448,-1.8447,-1.8446,-1.8446,-1.8447,-1.8448,0,0,0,0,0,0,0,0,0,0,0,0,0,-1.8452,-1.8453,-1.8485,-1.8485,-1.8485,-1.8485,-1.8485,-1.8485,-1.8449,-1.8448,-1.8447,-1.8446,-1.8446,-1.8447,-1.8448,0,0,0,0,0,0,0,0,0,0,0,0,0,-1.8461,-1.8453,-1.8485,-1.8467,-1.8465,-1.8485,-1.8485,-1.8485,-1.845,-1.8448,-1.8447,-1.8445,-1.8446,-1.8447,-1.8448,-1.8485,0,0,-1.8452,-1.8453,0,0,0,0,0,0,0,0,-1.8461,-1.8462,-1.847,-1.8468,-1.8467,-1.8466,-1.8474,-1.8485,-1.845,-1.8456,-1.8446,-1.8445,-1.8454,-1.8455,-1.8458,-1.8485,-1.8485,-1.8453,-1.8453,-1.8454,-1.8454,0,0,0,0,0,0,0,-1.846,-1.8462,-1.8485,-1.847,-1.8468,-1.8459,-1.8458,-1.8476,-1.8463,-1.8455,-1.8452,-1.8453,-1.8453,-1.8457,-1.8458,-1.8485,-1.8453,-1.8454,-1.8455,-1.8455,-1.8543,-1.8545,0,0,0,0,0,0,-1.8462,-1.8462,-1.8485,-1.8485,-1.846,-1.8461,-1.846,-1.8467,-1.8463,-1.846,-1.8454,-1.8451,-1.8455,-1.8456,-1.8457,-1.85,-1.8454,-1.8455,-1.8456,-1.8542,-1.8543,-1.8545,0,0,0,0,0,0,-1.8461,-1.8464,-1.8485,-1.8473,-1.8475,-1.8463,-1.8471,-1.8468,-1.8472,-1.8462,-1.8459,-1.846,-1.8454,-1.8456,-1.8479,-1.85,-1.8456,-1.8457,-1.854,-1.8542,-1.8544,-1.8587,0,0,0,0,0,0,-1.8461,-1.8464,-1.8478,-1.8473,-1.8475,-1.8507,-1.8472,-1.8469,-1.8474,-1.8471,-1.8467,-1.8465,-1.8453,-1.8477,-1.848,-1.8501,-1.8458,-1.8538,-1.8541,-1.8544,-1.8583,-1.859,-1.8596,0,0,0,0,0,-1.846,-1.849,-1.8479,-1.8482,-1.8493,-1.8508,-1.8509,-1.8495,-1.8476,-1.849,-1.8484,-1.8465,-1.8497,-1.848,-1.8483,-1.8504,-1.8536,-1.854,-1.8543,-1.8581,-1.8589,-1.8596,0,0,0,0,0,0,-1.8498,-1.8489,-1.8477,-1.8507,-1.8508,-1.8502,-1.8519,-1.8504,-1.851,-1.8507,-1.8488,-1.8488,-1.8514,-1.8511,-1.8492,-1.854,-1.8513,-1.8518,-1.8541,-1.8548,-1.8555,-1.8555,-1.8459,0,0,0,0,0,-1.851,-1.8523,-1.8514,-1.8542,-1.8543,-1.8531,-1.8537,-1.8526,-1.8526,-1.8527,-1.8522,-1.8523,-1.8534,-1.8541,-1.855,-1.8583,-1.8582,-1.8599,-1.8606,-1.8611,-1.8615,-1.8632,-1.864,-1.8557,-1.8557,-1.8556,0,0,-1.8534,-1.8531,-1.8541,-1.8549,-1.8549,-1.8563,-1.8532,-1.8548,-1.8558,-1.8529,-1.8551,-1.8548,-1.8548,-1.8576,-1.8588,-1.8575,-1.8638,-1.8615,-1.8619,-1.8621,-1.8637,-1.8645,-1.8652,-1.8559,-1.8558,-1.8558,0,0,-1.8586,-1.8585,-1.8608,-1.8609,-1.8609,-1.8601,-1.8606,-1.8602,-1.8599,-1.862,-1.8599,-1.8611,-1.8629,-1.863,-1.8633,-1.8686,-1.8669,-1.8689,-1.8723,-1.874,-1.8747,-1.8752,-1.8771,-1.8779,-1.8693,-1.8693,-1.8694,0,-1.8617,-1.8637,-1.8621,-1.8639,-1.8644,-1.8618,-1.8641,-1.8643,-1.8646,-1.8649,-1.8634,-1.8657,-1.8655,-1.8683,-1.8696,-1.8699,-1.8705,-1.869,-1.8747,-1.8752,-1.8758,-1.8776,-1.8783,-1.8696,-1.8696,-1.8695,-1.8695,0,-1.8675,-1.869,-1.8708,-1.8712,-1.8718,-1.8739,-1.8726,-1.8734,-1.8722,-1.8716,-1.8738,-1.8735,-1.8743,-1.8749,-1.8738,-1.8776,-1.8768,-1.875,-1.8723,-1.8768,-1.8785,-1.8792,-1.8699,-1.8699,-1.8698,-1.8697,0,0,-1.8751,-1.8747,-1.8754,-1.8755,-1.8754,-1.8765,-1.8784,-1.8792,-1.88,-1.8803,-1.8818,-1.8834,-1.8818,-1.8821,-1.881,-1.8825,-1.8868,-1.8805,-1.8805,-1.8817,-1.891,-1.8924,-1.8932,-1.8856,-1.8858,-1.8859,-1.891,0,-1.8802,-1.8835,-1.8821,-1.8855,-1.8868,-1.8845,-1.8861,-1.8862,-1.8857,-1.8867,-1.886,-1.8872,-1.885,-1.8852,-1.8866,-1.8859,-1.8886,-1.8855,-1.8871,-1.8872,-1.8872,-1.8941,-1.8955,-1.9004,-1.8917,-1.8918,-1.8918,0,-1.8866,-1.8872,-1.8908,-1.8904,-1.8909,-1.8924,-1.8931,-1.8941,-1.8942,-1.8936,-1.894,-1.8925,-1.8944,-1.8917,-1.8942,-1.8922,-1.8927,-1.8925,-1.8927,-1.8928,-1.8898,-1.8944,-1.9019,-1.9027,-1.8929,-1.8928,-1.8927,0,-1.8919,-1.8936,-1.8959,-1.8961,-1.8958,-1.8969,-1.8968,-1.8967,-1.8973,-1.8978,-1.8982,-1.899,-1.8994,-1.9,-1.8988,-1.8969,-1.9015,-1.8987,-1.9011,-1.9011,-1.9022,-1.9021,-1.9099,-1.9025,-1.9025,-1.9025,-1.9024,0,-1.8977,-1.9,-1.8983,-1.8997,-1.9022,-1.9006,-1.903,-1.9027,-1.9026,-1.904,-1.9019,-1.9032,-1.9015,-1.9026,-1.9016,-1.9039,-1.904,-1.9037,-1.9034,-1.9039,-1.904,-1.9042,-1.9039,-1.9027,-1.9026,-1.9026,-1.9025,0,-1.904,-1.9029,-1.9053,-1.9048,-1.9048,-1.9066,-1.9061,-1.9075,-1.9068,-1.9085,-1.9088,-1.9077,-1.9089,-1.9077,-1.9088,-1.9082,-1.9112,-1.9104,-1.9112,-1.911,-1.9135,-1.9133,-1.9218,-1.9228,-1.9147,-1.9148,-1.9148,0,-1.9078,-1.9095,-1.9092,-1.91,-1.91,-1.9112,-1.9118,-1.9103,-1.911,-1.9112,-1.9125,-1.9136,-1.9143,-1.9164,-1.9157,-1.9165,-1.9157,-1.9187,-1.9159,-1.9163,-1.9158,-1.9158,-1.916,-1.9192,-1.9193,-1.9194,-1.9195,0,-1.9147,-1.9141,-1.9151,-1.9159,-1.9167,-1.9172,-1.9176,-1.9183,-1.9167,-1.9176,-1.9189,-1.9195,-1.9206,-1.9217,-1.9224,-1.9222,-1.9206,-1.9204,-1.921,-1.9215,-1.9219,-1.9218,-1.9128,-1.9202,-1.9201,-1.9201,-1.92,-1.92,-1.9199,-1.9213,-1.9213,-1.9225,-1.9226,-1.923,-1.9242,-1.9237,-1.9247,-1.9256,-1.9246,-1.9261,-1.9261,-1.9269,-1.9269,-1.9281,-1.9269,-1.9277,-1.928,-1.9282,-1.9286,-1.9217,-1.9282,-1.9282,-1.9281,-1.9281,-1.9281,0,-1.9267,-1.9266,-1.9277,-1.9283,-1.9292,-1.9277,-1.928,-1.9289,-1.9302,-1.9304,-1.9312,-1.9326,-1.9337,-1.9331,-1.9339,-1.935,-1.9343,-1.9353,-1.9352,-1.9352,-1.9296,-1.929,-1.9358,-1.9358,-1.9358,-1.9358,-1.9358,-1.9358,-1.9304,-1.9327,-1.9321,-1.9345,-1.9344,-1.9359,-1.9362,-1.9366,-1.9367,-1.9384,-1.9393,-1.9389,-1.9387,-1.9396,-1.9405,-1.9403,-1.9407,-1.942,-1.9415,-1.9364,-1.9356,-1.9349,-1.9343,-1.9421,-1.9421,-1.947,-1.947,-1.9471]},{"header":{"parameterUnit":"m.s-1","parameterCategory":1,"la1":30.2991,"la2":30.254,"lo1":-89.0895,"lo2":-89.0444,"dy":0.0017,"dx":0.0017,"nx":28,"ny":28,"refTime":"2025-05-29T21:00:00:Z","depth":0,"parameterNumber":3,"parameterNumberName":"V-component_of_WINDS"},"data":[0,0,0,0,0,0,0,0,0,0,0,0,0,0,0,0,0,0,0,0,0,0,0,0,0,0,0,0,0,0,0,0,0,0,0,0,0,0,0,0,0,0,0,0,0,0,0,0,0,0,0,0,0,0,0,0,0,0,-2.9549,-2.9549,0,-2.9543,-2.9543,-2.9543,-2.9502,-2.9501,-2.95,-2.9499,-2.9493,-2.9493,-2.9494,0,0,0,0,0,0,0,0,0,0,0,0,0,-2.9525,-2.9526,-2.9549,-2.9549,-2.9549,-2.9543,-2.9543,-2.9543,-2.9502,-2.9501,-2.95,-2.9499,-2.9492,-2.9493,-2.9494,0,0,0,0,0,0,0,0,0,0,0,0,0,-2.9529,-2.9526,-2.9549,-2.9528,-2.9526,-2.9543,-2.9543,-2.9543,-2.9502,-2.9501,-2.9499,-2.9498,-2.9492,-2.9493,-2.9494,-2.9531,0,0,-2.9498,-2.9498,0,0,0,0,0,0,0,0,-2.9529,-2.953,-2.9531,-2.9529,-2.9527,-2.9522,-2.9532,-2.9539,-2.9503,-2.9511,-2.9499,-2.9497,-2.9503,-2.9504,-2.9506,-2.9531,-2.9531,-2.9498,-2.9499,-2.9499,-2.9499,0,0,0,0,0,0,0,-2.9529,-2.953,-2.9546,-2.9531,-2.9529,-2.9519,-2.9518,-2.9533,-2.9516,-2.951,-2.9507,-2.9507,-2.9502,-2.9505,-2.9505,-2.9531,-2.9498,-2.9499,-2.95,-2.95,-2.9587,-2.9589,0,0,0,0,0,0,-2.9531,-2.953,-2.9547,-2.9546,-2.9524,-2.952,-2.9519,-2.9525,-2.9515,-2.9513,-2.9509,-2.9505,-2.9504,-2.9504,-2.9505,-2.9548,-2.9499,-2.95,-2.9501,-2.9585,-2.9587,-2.9589,0,0,0,0,0,0,-2.9531,-2.9533,-2.9547,-2.9537,-2.9538,-2.9522,-2.9529,-2.9526,-2.9528,-2.9514,-2.9511,-2.9514,-2.9502,-2.9503,-2.9525,-2.9548,-2.9501,-2.9502,-2.9583,-2.9586,-2.9588,-2.9635,0,0,0,0,0,0,-2.953,-2.9533,-2.9547,-2.9538,-2.9539,-2.9567,-2.9531,-2.9527,-2.953,-2.9526,-2.9519,-2.9516,-2.9501,-2.9524,-2.9526,-2.9548,-2.9503,-2.9581,-2.9585,-2.9587,-2.9632,-2.9639,-2.9645,0,0,0,0,0,-2.953,-2.956,-2.9548,-2.955,-2.9556,-2.9569,-2.9569,-2.9552,-2.9532,-2.9546,-2.9537,-2.9516,-2.9545,-2.9526,-2.9529,-2.9552,-2.958,-2.9584,-2.9587,-2.9629,-2.9638,-2.9645,0,0,0,0,0,0,-2.9572,-2.9558,-2.9545,-2.9573,-2.9573,-2.9562,-2.9579,-2.9562,-2.9566,-2.9562,-2.954,-2.9539,-2.9564,-2.956,-2.954,-2.9587,-2.9559,-2.9563,-2.9589,-2.9598,-2.9605,-2.9605,-2.9503,0,0,0,0,0,-2.9584,-2.9596,-2.9584,-2.961,-2.961,-2.9595,-2.96,-2.9586,-2.9585,-2.9584,-2.9577,-2.9576,-2.9585,-2.9591,-2.9598,-2.9631,-2.9629,-2.9648,-2.9655,-2.966,-2.9665,-2.9683,-2.9691,-2.9601,-2.9601,-2.9601,0,0,-2.961,-2.9605,-2.9613,-2.9618,-2.9616,-2.9629,-2.9595,-2.9609,-2.9619,-2.9586,-2.9607,-2.9602,-2.9599,-2.9627,-2.9639,-2.9624,-2.9689,-2.9665,-2.967,-2.9671,-2.9687,-2.9696,-2.9704,-2.9604,-2.9603,-2.9603,0,0,-2.9665,-2.9661,-2.9683,-2.9682,-2.968,-2.9669,-2.9675,-2.9667,-2.9662,-2.9683,-2.9659,-2.967,-2.9685,-2.9685,-2.9687,-2.9742,-2.9724,-2.9745,-2.9781,-2.9799,-2.9806,-2.9812,-2.9833,-2.9841,-2.9749,-2.9749,-2.9749,0,-2.9697,-2.9716,-2.9697,-2.9713,-2.9717,-2.9688,-2.9711,-2.9711,-2.9711,-2.9714,-2.9697,-2.9717,-2.9713,-2.9741,-2.9755,-2.9757,-2.9763,-2.9746,-2.9807,-2.9813,-2.9818,-2.9838,-2.9846,-2.9752,-2.9752,-2.9751,-2.9751,0,-2.9757,-2.977,-2.9788,-2.979,-2.9795,-2.9814,-2.9799,-2.9806,-2.9793,-2.9784,-2.9806,-2.9801,-2.9807,-2.9812,-2.9799,-2.9839,-2.983,-2.9811,-2.9781,-2.983,-2.9848,-2.9855,-2.9756,-2.9755,-2.9754,-2.9753,0,0,-2.9837,-2.9828,-2.9835,-2.9836,-2.9832,-2.9842,-2.9861,-2.9867,-2.9875,-2.9876,-2.9891,-2.9905,-2.9888,-2.989,-2.9876,-2.9892,-2.9938,-2.987,-2.987,-2.9884,-2.9983,-2.9998,-3.0007,-2.9925,-2.9926,-2.9927,-2.9983,0,-2.9889,-2.9921,-2.9905,-2.9939,-2.9952,-2.9925,-2.9942,-2.9941,-2.9934,-2.9944,-2.9935,-2.9946,-2.9921,-2.9923,-2.9937,-2.9929,-2.9957,-2.9925,-2.994,-2.9941,-2.9942,-3.0016,-3.0032,-3.0085,-2.999,-2.9991,-2.9992,0,-2.9955,-2.996,-2.9996,-2.999,-2.9995,-3.001,-3.0016,-3.0025,-3.0024,-3.0018,-3.0021,-3.0004,-3.0022,-2.9993,-3.0018,-2.9997,-3.0002,-2.9999,-3.0001,-3.0002,-2.997,-3.002,-3.0102,-3.011,-3.0003,-3.0002,-3.0001,0,-3.0012,-3.0027,-3.005,-3.0052,-3.0046,-3.0057,-3.0055,-3.0053,-3.0058,-3.0063,-3.0066,-3.0073,-3.0077,-3.0082,-3.0068,-3.0048,-3.0095,-3.0065,-3.0091,-3.0092,-3.0103,-3.0102,-3.0187,-3.0105,-3.0105,-3.0105,-3.0104,0,-3.0073,-3.0096,-3.0076,-3.009,-3.0116,-3.0097,-3.0123,-3.0118,-3.0116,-3.0129,-3.0106,-3.0119,-3.0099,-3.011,-3.0098,-3.0122,-3.0123,-3.0119,-3.0116,-3.0122,-3.0123,-3.0125,-3.0122,-3.0107,-3.0106,-3.0106,-3.0106,0,-3.014,-3.0127,-3.0152,-3.0144,-3.0143,-3.0162,-3.0156,-3.0169,-3.0161,-3.0178,-3.0181,-3.0168,-3.018,-3.0166,-3.0176,-3.0169,-3.0201,-3.0192,-3.0201,-3.0199,-3.0227,-3.0225,-3.0317,-3.0328,-3.0238,-3.0239,-3.024,0,-3.018,-3.0198,-3.0193,-3.02,-3.02,-3.0212,-3.0218,-3.0201,-3.0207,-3.0208,-3.0222,-3.0232,-3.0239,-3.026,-3.0251,-3.0259,-3.0251,-3.0282,-3.0252,-3.0257,-3.0252,-3.0252,-3.0254,-3.0289,-3.029,-3.0291,-3.0291,0,-3.0254,-3.0247,-3.0256,-3.0264,-3.0272,-3.0277,-3.028,-3.0287,-3.0269,-3.0278,-3.029,-3.0296,-3.0308,-3.0318,-3.0324,-3.0322,-3.0304,-3.0301,-3.0308,-3.0314,-3.032,-3.0318,-3.0219,-3.0299,-3.0298,-3.0298,-3.0297,-3.0297,-3.0309,-3.0324,-3.0323,-3.0335,-3.0335,-3.0339,-3.0352,-3.0346,-3.0356,-3.0364,-3.0353,-3.0369,-3.0368,-3.0374,-3.0374,-3.0386,-3.0373,-3.0382,-3.0385,-3.0388,-3.0393,-3.0317,-3.0387,-3.0387,-3.0387,-3.0387,-3.0386,0,-3.0382,-3.0381,-3.0391,-3.0397,-3.0407,-3.0389,-3.0392,-3.0401,-3.0415,-3.0417,-3.0425,-3.0439,-3.045,-3.0442,-3.0451,-3.0463,-3.0455,-3.0466,-3.0465,-3.0465,-3.0404,-3.0397,-3.0472,-3.0472,-3.0472,-3.0472,-3.0472,-3.0472,-3.0421,-3.0446,-3.0439,-3.0464,-3.0462,-3.0478,-3.0481,-3.0485,-3.0486,-3.0504,-3.0513,-3.0508,-3.0506,-3.0514,-3.0523,-3.0521,-3.0526,-3.054,-3.0535,-3.0478,-3.0469,-3.0461,-3.0455,-3.0541,-3.0541,-3.0595,-3.0596,-3.0596]}]]